Weather reports worldwide

Advertisment
Nancy/Ochey, France (7181): temperature & dewpoint: 14.01.2021 14:00:00 - 20.01.2021 14:00:00 (CET)Nancy/Ochey, France (7181): temperature 5cm: 14.01.2021 14:00:00 - 20.01.2021 14:00:00 (CET)Nancy/Ochey, France (7181): temperature -20cm: 14.01.2021 14:00:00 - 20.01.2021 14:00:00 (CET)Nancy/Ochey, France (7181): wind speed & gusts: 14.01.2021 14:00:00 - 20.01.2021 14:00:00 (CET)Nancy/Ochey, France (7181): wind direction: 14.01.2021 14:00:00 - 20.01.2021 14:00:00 (CET)Nancy/Ochey, France (7181): reduced air pressure: 14.01.2021 14:00:00 - 20.01.2021 14:00:00 (CET)Nancy/Ochey, France (7181): visibility: 14.01.2021 14:00:00 - 20.01.2021 14:00:00 (CET)Nancy/Ochey, France (7181): precipitation: 14.01.2021 14:00:00 - 20.01.2021 14:00:00 (CET)
Date & Time tt [°C] td [°C] tt 5cm [°C] tt -20cm [°C] ff [km/h] ff [kn] fx [km/h] fx [kn] dd ppp [hPa] vv [km] rr [mm]
20.01.2021 14:00:00 10,5 4,2 10,0 2,7 33 18 61 33 S 1003,3 53 0,0
20.01.2021 13:00:00 10,5 4,2 10,1 2,7 35 19 61 33 S 1004,2 30 0,0
20.01.2021 12:00:00 9,5 3,9 6,9 2,7 36 19 56 30 SSW 1005,5 35 0,0
20.01.2021 11:00:00 7,8 3,5 5,2 2,7 36 19 64 35 SSW 1006,6 37 0,0
20.01.2021 10:00:00 6,7 2,6 4,2 2,7 41 22 55 30 SSW 1007,3 43 0,0
20.01.2021 09:00:00 5,7 2,0 3,5 2,7 36 19 58 32 SSW 1007,9 23 0,0
20.01.2021 08:00:00 5,3 1,8 3,2 2,7 38 21 54 29 SSW 1008,5 42 0,0
20.01.2021 07:00:00 4,7 0,5 2,9 2,8 34 18 53 28 S 1009,0 46 0,0
20.01.2021 06:00:00 4,3 -0,9 2,7 2,8 33 18 50 27 SSW 1009,8 49 0,0
20.01.2021 05:00:00 4,1 -1,9 2,2 2,8 29 16 42 23 S 1010,4 56 0,0
20.01.2021 04:00:00 3,8 -2,4 1,8 2,8 22 12 34 19 SSW 1010,9 56 0,0
20.01.2021 03:00:00 3,6 -2,6 0,6 2,8 22 12 39 21 S 1011,6 58 0,0
20.01.2021 02:00:00 3,3 -3,1 1,3 2,8 14 7 29 15 S 1012,1 57 0,0
20.01.2021 01:00:00 3,9 -2,7 1,7 2,8 19 11 31 17 S 1012,5 54 0,0
20.01.2021 00:00:00 3,5 -2,5 1,8 2,8 17 9 31 17 S 1013,0 54 0,0
19.01.2021 23:00:00 3,9 -2,1 2,1 2,8 20 11 35 19 S 1013,5 46 0,0
19.01.2021 22:00:00 3,5 -1,7 1,6 2,8 19 10 35 19 SSW 1014,2 34 0,0
19.01.2021 21:00:00 3,0 -2,7 1,3 2,8 22 12 43 23 SSW 1014,7 45 0,0
19.01.2021 20:00:00 3,5 -2,7 1,6 2,8 31 17 45 24 SSW 1014,7 54 0,0
19.01.2021 19:00:00 3,2 -2,8 1,8 2,8 28 15 40 21 S 1015,2 53 0,0
19.01.2021 18:00:00 3,5 -2,7 2,0 2,8 29 16 42 23 S 1015,5 55 0,0
19.01.2021 17:00:00 3,4 -1,8 2,4 2,8 29 16 40 22 SSW 1016,2 39 0,0
19.01.2021 16:00:00 3,6 -1,4 2,6 2,8 32 17 49 26 SSW 1016,5 44 0,0
19.01.2021 15:00:00 3,7 -0,9 2,8 2,8 35 19 53 28 SSW 1016,4 28 0,0
19.01.2021 14:00:00 3,1 -0,5 2,1 2,8 31 17 46 25 SSW 1017,2 32 0,0
19.01.2021 13:00:00 2,5 -0,3 1,8 2,8 23 13 42 23 SSW 1018,2 36 0,0
19.01.2021 12:00:00 2,2 -0,4 0,9 2,8 29 16 53 28 SSW 1018,7 38 0,0
19.01.2021 11:00:00 2,0 -0,8 1,2 2,8 29 16 44 24 SSW 1019,2 14 0,0
19.01.2021 10:00:00 2,4 -1,2 1,5 2,8 32 18 52 28 SW 1019,6 36 0,0
19.01.2021 09:00:00 2,3 -1,1 1,3 2,8 36 19 50 27 SSW 1019,7 30 0,0
19.01.2021 08:00:00 2,0 -1,3 0,9 2,8 21 11 34 19 SSW 1020,5 44 0,0
19.01.2021 07:00:00 1,6 -1,3 0,5 2,8 17 9 31 17 S 1020,9 44 0,0
19.01.2021 06:00:00 1,6 -1,1 0,5 2,8 23 12 35 19 SSW 1021,6 46 0,0
19.01.2021 05:00:00 1,6 -1,0 0,3 2,8 18 10 31 17 SW 1022,4 35 0,0
19.01.2021 04:00:00 0,9 -0,7 -0,6 2,8 16 9 30 16 SSW 1023,4 21 0,0
19.01.2021 03:00:00 1,0 -0,8 -0,8 2,8 21 12 30 16 SSW 1024,1 27 0,0
19.01.2021 02:00:00 1,3 -0,8 -0,5 2,8 20 11 29 16 SSW 1024,4 39 0,0
19.01.2021 01:00:00 1,3 -1,3 -0,4 2,8 21 11 30 16 SSW 1025,2 44 0,0
19.01.2021 00:00:00 1,6 -1,3 0,5 2,8 13 7 23 12 SSW 1025,8 53 0,0
18.01.2021 23:00:00 2,2 -1,1 1,2 2,8 16 9 23 12 SSW 1026,1 48 0,0
18.01.2021 22:00:00 2,0 -0,6 1,2 2,8 14 7 25 13 SW 1026,7 26 0,0
18.01.2021 21:00:00 2,3 -0,1 1,2 2,8 16 9 29 15 SW 1027,0 34 0,0
18.01.2021 20:00:00 2,1 0,0 1,0 2,8 19 10 28 15 SSW 1027,1 32 0,0
18.01.2021 19:00:00 2,0 0,1 1,1 2,8 19 10 25 14 SSW 1027,1 39 0,0
18.01.2021 18:00:00 2,1 0,0 1,3 2,8 18 10 26 14 SSW 1027,0 48 0,0
18.01.2021 17:00:00 2,4 0,1 1,5 2,8 16 9 30 16 SW 1026,8 52 0,0
18.01.2021 16:00:00 3,0 -0,5 2,2 2,8 21 12 29 16 SW 1026,8 44 0,0
18.01.2021 15:00:00 3,3 0,2 2,8 2,8 19 11 28 15 SSW 1027,0 41 0,0
18.01.2021 14:00:00 3,4 -0,4 2,4 2,8 16 9 29 16 SSW 1027,7 34 0,0
18.01.2021 13:00:00 2,5 -0,1 2,4 2,8 20 11 26 14 SW 1028,4 38 0,0
18.01.2021 12:00:00 3,1 -0,7 2,1 2,8 20 11 30 16 SW 1028,5 35 0,0
18.01.2021 11:00:00 2,1 0,2 1,2 2,8 23 12 29 16 SSW 1029,2 35 0,0
18.01.2021 10:00:00 1,5 0,2 0,9 2,8 18 10 24 13 SSW 1029,1 36 0,0
18.01.2021 09:00:00 1,4 0,4 0,6 2,8 16 8 21 11 SSW 1028,8 30 0,0
18.01.2021 08:00:00 1,1 0,4 0,5 2,8 13 7 21 11 SSW 1028,4 20 0,0
18.01.2021 07:00:00 1,0 0,4 0,5 2,8 13 7 22 12 SW 1028,3 19 0,0
18.01.2021 06:00:00 1,2 0,6 0,5 2,8 16 8 22 12 SW 1028,3 20 0,0
18.01.2021 05:00:00 1,0 0,4 0,4 2,8 16 9 21 11 SW 1027,9 18 0,0
18.01.2021 04:00:00 1,2 0,5 0,5 2,8 14 8 21 11 WSW 1028,2 19 0,0
18.01.2021 03:00:00 1,1 0,4 0,5 2,8 11 6 19 10 WSW 1028,4 17 0,0
18.01.2021 02:00:00 1,1 0,5 0,5 2,8 16 9 22 12 SW 1028,0 14 0,0
18.01.2021 01:00:00 1,2 0,6 0,4 2,8 12 7 17 9 WSW 1028,0 16 0,0
18.01.2021 00:00:00 1,3 0,6 0,7 2,8 9 5 21 11 W 1028,1 13 0,0
17.01.2021 23:00:00 1,6 0,9 0,9 2,8 11 6 18 10 W 1027,9 13 0,0
17.01.2021 22:00:00 1,6 1,0 0,8 2,8 11 6 17 9 W 1027,5 11 0,0
17.01.2021 21:00:00 1,7 1,1 0,8 2,8 10 6 20 11 W 1027,1 9 0,0
17.01.2021 20:00:00 1,4 0,7 0,7 2,8 10 5 18 10 W 1026,8 16 0,0
17.01.2021 19:00:00 1,6 1,0 0,7 2,8 10 5 22 12 W 1026,2 14 0,0
17.01.2021 18:00:00 1,4 1,0 0,7 2,8 9 5 27 15 W 1025,9 13 0,0
17.01.2021 17:00:00 1,5 1,4 0,9 2,8 14 7 24 13 WNW 1025,0 6 0,0
17.01.2021 16:00:00 1,7 1,6 0,9 2,8 13 7 31 17 WNW 1023,9 4,8 0,0
17.01.2021 15:00:00 1,7 1,4 0,9 2,8 15 8 27 15 WNW 1022,8 6 0,0
17.01.2021 14:00:00 1,7 1,4 0,6 2,8 14 8 25 14 WNW 1022,1 6 0,0
17.01.2021 13:00:00 1,7 1,4 0,2 2,8 13 7 24 13 W 1021,9 3,8 0,0
17.01.2021 12:00:00 1,6 1,3 0,0 2,8 16 8 25 14 WNW 1021,7 10 0,0
17.01.2021 11:00:00 1,4 1,3 0,0 2,8 8 4 21 11 W 1021,1 7 0,0
17.01.2021 10:00:00 1,1 1,0 -0,1 2,8 11 6 21 11 WSW 1020,4 12 0,2
17.01.2021 09:00:00 0,9 0,8 -0,1 2,9 11 6 19 11 WSW 1019,8 8 0,0
17.01.2021 08:00:00 0,6 0,5 -0,2 2,8 16 9 22 12 SW 1019,2 0,2 0,0
17.01.2021 07:00:00 0,4 0,3 -0,2 2,8 9 5 15 8 WSW 1018,9 11 0,0
17.01.2021 06:00:00 0,3 0,0 -0,3 2,9 4 2 23 12 WSW 1018,6 12 0,2
17.01.2021 05:00:00 0,4 0,1 -0,4 2,9 13 7 23 13 W 1018,5 6 0,0
17.01.2021 04:00:00 0,3 0,2 -0,6 2,9 16 9 25 14 WSW 1018,0 9 0,4
17.01.2021 03:00:00 -0,1 -0,4 -0,9 2,9 18 10 30 16 SW 1018,1 2,6 0,0
17.01.2021 02:00:00 -0,4 -0,7 -1,4 2,9 24 13 32 17 SW 1017,9 7 0,0
17.01.2021 01:00:00 -0,8 -1,2 -1,9 2,9 18 10 31 17 SSW 1018,3 3,7 0,2
17.01.2021 00:00:00 -1,4 -2,0 -2,2 2,9 23 12 34 19 SSW 1019,1 4,5 0,0
16.01.2021 23:00:00 -1,9 -2,6 -2,5 2,9 23 12 34 19 S 1019,8 3,0 0,0
16.01.2021 22:00:00 -2,2 -3,0 -2,7 2,9 24 13 37 20 SSW 1020,7 4,4 0,2
16.01.2021 21:00:00 -2,5 -3,3 -2,9 2,9 27 14 44 24 S 1021,4 1,8 0,4
16.01.2021 20:00:00 -2,9 -3,7 -3,1 2,9 20 11 35 19 S 1022,5 2,1 0,4
16.01.2021 19:00:00 -2,9 -3,6 -3,0 2,9 16 9 28 15 S 1023,4 1,2 0,2
16.01.2021 18:00:00 -2,8 -3,5 -3,1 2,9 15 8 31 17 S 1024,4 2,2 0,0
16.01.2021 17:00:00 -2,8 -3,5 -3,0 3,0 16 9 22 12 S 1025,4 7 0,0
16.01.2021 16:00:00 -2,8 -3,5 -3,0 3,0 16 8 26 14 S 1025,9 11 0,0
16.01.2021 15:00:00 -3,4 -4,1 -3,0 3,0 13 7 23 12 SSW 1026,7 9 0,0
16.01.2021 14:00:00 -4,1 -4,8 -1,3 3,0 8 4 12 7 SSE 1027,7 4,9 0,0
16.01.2021 13:00:00 -5,1 -5,9 -0,9 3,0 7 4 11 6 SSE 1028,7 4,3 0,0
16.01.2021 12:00:00 -6,0 -6,8 -4,0 3,0 7 4 13 7 SSE 1029,7 6 0,0
16.01.2021 11:00:00 -7,5 -8,4 -5,2 3,0 10 5 14 7 SSE 1030,4 4,4 0,0
16.01.2021 10:00:00 -8,5 -9,6 -6,7 3,0 7 4 10 6 SE 1030,8 2,1 0,0
16.01.2021 09:00:00 -8,3 -9,2 -7,4 3,0 5 3 6 3 SSE 1031,0 0,1 0,0
16.01.2021 08:00:00 -8,2 -9,0 -8,2 3,0 4 2 5 3 SE 1030,9 0,1 0,0
16.01.2021 07:00:00 -8,0 -8,9 -11,1 3,1 0 0 9 5 N 1031,1 - 0,0
16.01.2021 06:00:00 -8,7 -9,6 -12,2 3,0 4 2 5 3 E 1031,4 0,1 0,0
16.01.2021 05:00:00 -8,5 -9,4 -12,0 3,1 2 1 5 3 ESE 1031,7 0,3 0,0
16.01.2021 04:00:00 -8,0 -8,8 -14,6 3,1 4 2 6 3 N 1031,5 0,1 0,0
16.01.2021 03:00:00 -7,5 -8,4 -15,0 3,1 2 1 8 4 N 1031,5 0,1 0,0
16.01.2021 02:00:00 -7,5 -8,4 -15,1 3,0 5 3 6 3 N 1031,4 0,2 0,0
16.01.2021 01:00:00 -6,8 -7,6 -15,1 3,1 3 1 8 4 NNW 1031,4 0,3 0,0
16.01.2021 00:00:00 -6,9 -7,6 -14,9 3,0 2 1 10 5 NNW 1031,9 0,9 0,0
15.01.2021 23:00:00 -7,3 -8,2 -15,0 3,0 5 3 8 5 N 1031,6 0,4 0,0
15.01.2021 22:00:00 -6,5 -6,9 -14,2 3,1 5 3 9 5 WNW 1031,3 0,2 0,0
15.01.2021 21:00:00 -6,4 -7,1 -14,0 3,1 8 4 10 6 NW 1030,7 0,3 0,0
15.01.2021 20:00:00 -5,6 -6,3 -11,8 3,1 4 2 10 6 NNE 1030,2 5 0,0
15.01.2021 19:00:00 -3,8 -4,3 -10,8 3,1 3 2 9 5 W 1029,7 6 0,0
15.01.2021 18:00:00 -4,0 -4,8 -8,7 3,0 8 4 14 8 NNW 1029,3 11 0,0
15.01.2021 17:00:00 -2,0 -3,9 -2,0 3,1 11 6 27 14 N 1028,2 20 0,0
15.01.2021 16:00:00 -0,9 -3,1 0,3 3,0 17 9 27 14 N 1027,4 20 0,0
15.01.2021 15:00:00 -0,7 -3,2 1,8 3,0 19 11 32 18 NNE 1026,5 19 0,0
15.01.2021 14:00:00 -0,9 -3,3 1,4 3,1 21 11 34 18 NNE 1025,9 19 0,0
15.01.2021 13:00:00 -1,0 -3,5 -0,1 3,1 11 6 25 13 NNE 1025,8 24 0,0
15.01.2021 12:00:00 -1,5 -3,5 -1,0 3,1 12 6 23 13 NNE 1025,4 26 0,0
15.01.2021 11:00:00 -2,0 -3,9 -1,5 3,1 13 7 29 16 NNE 1024,9 28 0,0
15.01.2021 10:00:00 -2,3 -3,9 -2,4 3,1 17 9 31 17 NNE 1023,5 17 0,0
15.01.2021 09:00:00 -2,4 -3,8 -2,4 3,1 15 8 31 17 NE 1022,3 37 0,0
15.01.2021 08:00:00 -1,7 -2,5 -1,3 3,1 20 11 36 19 NE 1021,0 11 0,2
15.01.2021 07:00:00 -1,3 -1,7 -0,9 3,1 22 12 36 19 NE 1019,5 2,4 0,0
15.01.2021 06:00:00 -1,1 -1,5 -0,7 3,1 21 12 37 20 NE 1018,4 1,8 0,4
15.01.2021 05:00:00 -0,4 -0,8 -0,3 3,1 16 9 32 18 NE 1017,5 2,1 0,8
15.01.2021 04:00:00 -0,2 -0,6 -0,2 3,1 16 9 34 18 NE 1016,6 1,1 0,6
15.01.2021 03:00:00 -0,2 -0,6 -0,1 3,1 14 8 34 18 NE 1015,8 2,7 0,0
15.01.2021 02:00:00 0,0 -0,3 0,0 3,1 14 7 26 14 ENE 1015,1 7 0,2
15.01.2021 01:00:00 0,1 -0,2 0,0 3,1 16 8 26 14 ENE 1014,7 5 0,0
15.01.2021 00:00:00 0,2 0,1 0,0 3,1 12 6 18 10 ENE 1014,4 7 0,0
14.01.2021 23:00:00 0,3 0,2 0,0 3,1 6 4 10 6 ENE 1013,9 2,9 0,4
14.01.2021 22:00:00 0,3 0,0 0,0 3,2 8 4 23 13 E 1013,9 3,4 0,8
14.01.2021 21:00:00 0,2 -0,1 0,0 3,1 13 7 28 15 E 1013,7 1,8 1,2
14.01.2021 20:00:00 0,1 -0,2 0,0 3,2 18 10 33 18 E 1014,3 2,8 1,8
14.01.2021 19:00:00 -0,1 -0,4 0,0 3,1 16 9 30 16 E 1015,0 2,9 0,6
14.01.2021 18:00:00 -0,1 -0,4 0,0 3,1 20 11 36 19 E 1015,9 3,9 0,4
14.01.2021 17:00:00 -0,2 -0,5 -0,1 3,1 21 11 34 18 E 1016,7 4,1 0,2
14.01.2021 16:00:00 0,1 -0,3 0,0 3,1 14 8 29 16 E 1017,2 3,1 0,0
14.01.2021 15:00:00 0,3 -0,1 0,0 3,1 13 7 35 19 E 1017,6 2,3 0,6
14.01.2021 14:00:00 0,5 0,1 0,0 3,0 10 6 18 10 E 1018,3 1,9 1,0

tt = temperature
td = dewpoint
tt 5cm = temperature 5cm
tt -20cm = temperature -20cm
ff = wind speed
fx = gusts
dd = wind direction
ppp = reduced air pressure
vv = visibility
rr = precipitation

Next stations